AO-07 1 07530U 74089B 22055.83283865 -.00000019 00000-0 16660-3 0 9993 2 07530 101.8924 35.4005 0011936 257.8627 217.7205 12.53653074163590 UO-11 1 14781U 84021B 22055.54563011 .00000503 00000-0 67304-4 0 9997 2 14781 97.6100 48.1920 0007881 343.3146 16.7808 14.83460048 23304 LO-19 1 20442U 90005G 22055.82842710 .00000058 00000-0 37701-4 0 9997 2 20442 98.7791 19.0624 0012467 135.6985 224.5199 14.33024810677035 HUBBLE 1 20580U 90037B 22055.55648622 .00001519 00000-0 80087-4 0 9999 2 20580 28.4689 196.5784 0002305 259.4467 147.5351 15.10065270549136 MET-2/21 1 22782U 93055A 22055.57167598 .00000057 00000-0 38600-4 0 9998 2 22782 82.5467 103.8397 0021151 306.3494 161.6225 13.83847200438391 AO-27 1 22825U 93061C 22055.66613634 .00000027 00000-0 28475-4 0 9996 2 22825 98.9008 84.2438 0008841 27.1562 333.0080 14.30146500482306 IO-26 1 22826U 93061D 22055.57654030 .00000033 00000-0 30360-4 0 9995 2 22826 98.8951 84.0393 0009132 14.3826 345.7614 14.30488900482278 FO-29 1 24278U 96046B 22055.52175244 -.00000052 00000-0 -15512-4 0 9999 2 24278 98.5324 94.6708 0349788 216.1479 141.5556 13.53110520260331 NOAA-15 1 25338U 98030A 22055.95262626 .00000071 00000-0 47934-4 0 9992 2 25338 98.6583 86.8863 0009336 264.5131 95.4984 14.26092561237236 GO-32 1 25397U 98043D 22055.56404019 .00000032 00000-0 33665-4 0 9995 2 25397 98.8043 5.8199 0002339 80.3577 279.7866 14.23733652227360 ISS 1 25544U 98067A 22055.81347216 .00006393 00000-0 12020-3 0 9995 2 25544 51.6414 173.0868 0005393 163.0958 333.2724 15.49926623327753 NO-44 1 26931U 01043C 22055.83120487 .00000023 00000-0 40615-4 0 9991 2 26931 67.0535 349.0835 0007439 278.4792 81.5466 14.30665149 65452 SO-50 1 27607U 02058C 22055.24159265 .00000278 00000-0 59449-4 0 9997 2 27607 64.5544 288.2857 0070325 317.1112 42.4518 14.75929220 31666 CO-55 1 27844U 03031E 22055.94883222 .00000142 00000-0 83387-4 0 9994 2 27844 98.6815 65.3232 0010906 70.4338 289.8017 14.22385887967911 CO-57 1 27848U 03031J 22055.87715256 .00000117 00000-0 72561-4 0 9995 2 27848 98.6864 65.7925 0010863 83.1967 277.0446 14.21952016967719 RS-22 1 27939U 03042A 22055.87580262 .00000516 00000-0 10045-3 0 9996 2 27939 98.1715 196.7613 0012656 198.0043 162.0719 14.67150278984537 NOAA-18 1 28654U 05018A 22055.80699398 .00000095 00000-0 75572-4 0 9999 2 28654 98.9620 126.2813 0013296 290.5862 69.3883 14.12691714864165 CO-58 1 28895U 05043F 22055.83210262 .00000533 00000-0 11036-3 0 9997 2 28895 98.0875 189.0881 0017688 133.4162 226.8516 14.64108200871165 Falconsat-3 1 30776U 07006E 22055.30567752 .00018531 00000-0 37167-3 0 9990 2 30776 35.4330 277.0046 0002539 2.5750 357.4993 15.45811668832027 CO-65 1 32785U 08021C 22055.89487318 .00000980 00000-0 10945-3 0 9997 2 32785 97.6442 30.4397 0011352 244.1078 115.8969 14.89100705749805 AAUSAT2 1 32788U 08021F 22055.53584548 .00001981 00000-0 17952-3 0 9991 2 32788 97.5264 44.9961 0012520 135.8562 224.3661 14.96395206751547 DO-64 1 32789U 08021G 22055.86828843 .00005415 00000-0 32755-3 0 9991 2 32789 97.3537 86.4048 0010863 3.3455 356.7846 15.10990396755013 CO-66 1 32791U 08021J 22055.46005925 .00001416 00000-0 14503-3 0 9996 2 32791 97.6002 35.6462 0012249 200.1160 159.9578 14.91950134750342 RS-30 1 32953U 08025A 22055.78344735 .00000021 00000-0 80971-4 0 9994 2 32953 82.4984 253.9872 0019641 144.8279 215.4103 12.43107381624335 PRISM 1 33493U 09002B 22055.88287472 .00002894 00000-0 24629-3 0 9992 2 33493 98.2204 36.1933 0015570 163.9794 196.1923 14.98592750712125 NOAA-19 1 33591U 09005A 22055.58315629 .00000080 00000-0 68363-4 0 9996 2 33591 99.1630 87.2718 0014535 142.3105 217.9087 14.12532374672256 SRMSAT 1 37841U 11058D 22055.79316104 .00000343 00000-0 43243-4 0 9993 2 37841 19.9707 215.8941 0011809 186.0316 203.6258 14.10727313535538 HRBE 1 37855U 11061F 22055.85930992 .00004805 00000-0 22641-3 0 9991 2 37855 101.7128 115.7958 0160579 39.0023 322.2643 15.09766592564705 RS-40 1 38735U 12041C 22055.53071204 .00000018 00000-0 59922-4 0 9990 2 38735 82.4820 335.9157 0016049 258.5680 101.3602 12.42583991434490 ZACUBE-1 1 39417U 13066B 22055.89064466 .00001112 00000-0 14282-3 0 9992 2 39417 97.6237 32.5933 0059604 54.5640 306.1118 14.81869172446453 Delfi-N3xt 1 39428U 13066N 22055.37492861 .00001547 00000-0 24856-3 0 9991 2 39428 97.8064 354.7125 0117285 279.5352 79.2616 14.68541851441931 GOMX-1 1 39430U 13066Q 22055.78679991 .00000913 00000-0 17144-3 0 9998 2 39430 97.8154 329.4089 0151134 40.3706 320.8614 14.59872541439854 LO-74 1 39440U 13066AA 22055.43935288 .00000813 00000-0 11757-3 0 9998 2 39440 97.7122 17.8788 0080339 137.2764 223.4730 14.76571144443600 AO-73 1 39444U 13066AE 22055.91804493 .00001429 00000-0 17766-3 0 9998 2 39444 97.6124 35.0138 0058401 43.6626 316.9187 14.82851714445436 SPROUT 1 39770U 14029E 22055.77549621 .00003815 00000-0 40622-3 0 9991 2 39770 97.9289 172.2422 0009567 97.5555 262.6744 14.89487452420880 DTUSAT-2 1 40030U 14033W 22055.33053037 .00001231 00000-0 13536-3 0 9994 2 40030 97.9313 347.7437 0013248 68.7039 291.5591 14.89407011416803 EO-80 1 40032U 14033Y 22055.30032204 .00001338 00000-0 14677-3 0 9991 2 40032 97.9318 347.7246 0013162 69.6752 290.5878 14.89371697416778 HODOYOSHI-1 1 40299U 14070B 22055.51891734 .00003320 00000-0 13275-3 0 9997 2 40299 97.2574 127.0011 0012781 169.9175 314.0769 15.25713136405833 FIREBIRD FU3 1 40377U 15003B 22055.77365513 .00008700 00000-0 28839-3 0 9999 2 40377 99.1137 255.8669 0109672 45.9902 315.0305 15.25926837391220 FIREBIRD FU4 1 40378U 15003C 22055.80553234 .00008535 00000-0 28227-3 0 9990 2 40378 99.1144 256.0926 0109661 45.5486 315.4652 15.26005937391239 GRIFEX 1 40379U 15003D 22055.75312301 .00006544 00000-0 24738-3 0 9994 2 40379 99.1183 243.0701 0122528 84.3155 277.2032 15.20631297390493 XW-2A 1 40903U 15049E 22055.88718441 .00012108 00000-0 22609-3 0 9994 2 40903 97.2004 114.5377 0011602 164.2597 310.3588 15.48838540361815 XW-2C 1 40906U 15049H 22055.84655503 .00003546 00000-0 17847-3 0 9996 2 40906 97.4941 60.2725 0015305 36.8440 82.7847 15.17763270355835 XW-2D 1 40907U 15049J 22055.90041795 .00004049 00000-0 20073-3 0 9990 2 40907 97.4931 60.2275 0014598 33.1547 31.0344 15.18224160355881 LILACSAT-2 1 40908U 15049K 22055.58771618 .00002039 00000-0 11233-3 0 9994 2 40908 97.5154 57.3660 0016978 51.1290 91.4177 15.15035269355391 XW-2E 1 40909U 15049L 22055.55054134 .00006203 00000-0 28014-3 0 9991 2 40909 97.4682 64.2094 0013221 19.1319 98.8083 15.21257949356238 XW-2F 1 40910U 15049M 22055.57179157 .00006128 00000-0 28080-3 0 9997 2 40910 97.4763 63.3408 0014419 18.3984 101.5653 15.20746944356016 XW-2B 1 40911U 15049N 22055.59797745 .00004198 00000-0 20856-3 0 9997 2 40911 97.4927 60.5634 0014652 35.4043 81.5859 15.18127380355720 DCBB 1 40912U 15049P 22055.59412008 .00007031 00000-0 29670-3 0 9996 2 40912 97.4424 67.7302 0013118 347.2846 130.1510 15.23522647356553 TW-1A 1 40928U 15051D 22055.64069662 .00020450 00000-0 34640-3 0 9999 2 40928 97.0541 79.9195 0011110 84.0914 36.3248 15.51496458360701 IO-86 1 40931U 15052B 22055.39640272 .00000787 00000-0 20390-4 0 9997 2 40931 5.9955 255.4896 0013568 7.7194 352.3329 14.76736543346604 ATHENOXAT-1 1 41168U 15077C 22055.64009690 .00008642 00000-0 37818-3 0 9998 2 41168 14.9856 204.5918 0010274 95.2088 359.5193 15.17891680343124 ChubuSat-2 1 41338U 16012B 22055.95779601 .00001165 00000-0 82579-4 0 9995 2 41338 31.0041 19.9145 0013433 117.6115 242.5885 15.00902753330568 ChubuSat-3 1 41339U 16012C 22055.29297085 .00001268 00000-0 90220-4 0 9990 2 41339 31.0117 21.1383 0013082 117.7588 242.4377 15.01018763330461 Horyu-4 1 41340U 16012D 22055.53180985 .00002075 00000-0 14587-3 0 9997 2 41340 31.0061 359.8236 0013585 158.8020 201.3181 15.02512539330721 e-st@r-II 1 41459U 16025D 22055.39170104 .00005688 00000-0 26662-3 0 9998 2 41459 98.1705 212.5203 0152465 292.6727 65.8458 15.10369515320410 AAUSAT4 1 41460U 16025E 22055.42861327 .00011506 00000-0 49559-3 0 9994 2 41460 98.1673 217.8629 0136979 271.6114 86.9438 15.14597307320806 LO-87 1 41557U 16033B 22055.60298154 .00007863 00000-0 25846-3 0 9996 2 41557 97.3872 153.4065 0013207 62.7113 50.3908 15.31734385320096 NuSat2 1 41558U 16033C 22055.85029295 .00007285 00000-0 22456-3 0 9994 2 41558 97.4032 158.7355 0012275 53.7400 94.7409 15.33835604320376 Lapan A3 1 41603U 16040E 22055.90480418 .00000895 00000-0 44111-4 0 9990 2 41603 97.2231 97.7607 0012772 189.0041 289.2841 15.20322757314936 Pratham 1 41783U 16059A 22055.39552430 .00000221 00000-0 51516-4 0 9996 2 41783 97.9308 101.3913 0033815 168.8305 191.3656 14.63242258289096 TY-1 1 41844U 16066D 22055.53890712 .00008027 00000-0 30014-3 0 9997 2 41844 97.3955 68.2730 0013043 336.0695 180.2239 15.27523223294350 CAS-2T 1 41847U 16066G 22055.72960384 .00000572 00000-0 95916-4 0 9994 2 41847 98.5665 120.4644 0364611 186.7822 172.8357 14.38379273278143 EO-88 1 42017U 17008BX 22055.74777842 .00008553 00000-0 28877-3 0 9996 2 42017 97.2842 123.7401 0004106 296.8204 63.2617 15.30910393279814 CAS-4B 1 42759U 17034B 22055.57258373 .00001817 00000-0 12010-3 0 9990 2 42759 43.0167 234.4336 0009507 297.1011 170.1753 15.10945972259279 CAS-4A 1 42761U 17034D 22055.54819006 .00002025 00000-0 13206-3 0 9996 2 42761 43.0166 233.4384 0009880 299.6303 163.1962 15.11032685259271 NIUSat 1 42766U 17036B 22055.55588929 .00004728 00000-0 19586-3 0 9990 2 42766 97.2194 97.4860 0014605 13.6167 346.5462 15.24284347259593 Aalto 1 1 42775U 17036L 22055.81827887 .00003874 00000-0 16262-3 0 9997 2 42775 97.2153 97.8114 0013280 12.6716 347.4853 15.23959826259618 URSA MAIOR 1 42776U 17036M 22055.57123499 .00004384 00000-0 18154-3 0 9998 2 42776 97.2166 98.2037 0012982 12.5783 347.5776 15.24356100259604 Max Valier Sat 1 42778U 17036P 22055.40373245 .00004411 00000-0 17894-3 0 9999 2 42778 97.2236 100.4491 0011536 15.6154 344.5438 15.25061811259665 Pegasus 1 42784U 17036V 22055.57393036 .00005954 00000-0 23161-3 0 9991 2 42784 97.2175 101.2744 0011153 17.1392 343.0221 15.26329272259786 NUDATSat 1 42787U 17036Y 22055.97529995 .00010579 00000-0 37294-3 0 9994 2 42787 97.2210 105.0669 0009731 6.4529 353.6836 15.29405347259880 SUCHAI 1 1 42788U 17036Z 22055.08812582 .00007134 00000-0 26721-3 0 9990 2 42788 97.2185 102.1787 0010490 15.0371 345.1179 15.27525097259863 SKCUBE 1 42789U 17036AA 22055.56543560 .00006569 00000-0 24958-3 0 9992 2 42789 97.2180 102.2107 0010427 14.3213 345.8320 15.27081710259834 VZLUSAT 1 1 42790U 17036AB 22055.58369476 .00009634 00000-0 34064-3 0 9993 2 42790 97.2211 104.6690 0009275 8.4132 351.7262 15.29336439259976 VENTA 1 1 42791U 17036AC 22055.56758984 .00005802 00000-0 22264-3 0 9990 2 42791 97.2178 102.1705 0010146 15.1737 344.9804 15.26804579259826 Robusta 1B 1 42792U 17036AD 22055.35678327 .00007515 00000-0 28207-3 0 9996 2 42792 97.2180 102.5001 0010016 15.5377 344.6169 15.27441581259847 D-SAT 1 42794U 17036AF 22055.83629331 .00001484 00000-0 13051-3 0 9992 2 42794 97.4544 67.2238 0126082 102.0012 259.5372 14.92030887254729 TechnoSat 1 42829U 17042E 22055.59127079 .00000545 00000-0 59491-4 0 9999 2 42829 97.4360 276.2306 0014910 30.4433 329.7649 14.91546747251268 QIKCOM-1 1 42983U 98067NF 22055.49605146 .00040400 00000-0 24731-3 0 9993 2 42983 51.6365 51.6963 0001350 160.7021 199.4031 15.76905204247010 AO-91 1 43017U 17073E 22055.66937550 .00002091 00000-0 16384-3 0 9995 2 43017 97.6882 314.4682 0251440 196.5372 162.7532 14.80430516230423 PICSAT 1 43132U 18004X 22055.46066499 .00007565 00000-0 27754-3 0 9995 2 43132 97.3828 132.6909 0009222 46.3544 313.8459 15.28209346229133 AO-92 1 43137U 18004AC 22055.47001407 .00005703 00000-0 21735-3 0 9994 2 43137 97.3799 131.7960 0009250 49.3640 310.8402 15.27060392229098 TianYi 2 1 43155U 18008A 22055.59247191 .00004235 00000-0 23805-3 0 9992 2 43155 97.3693 117.6675 0016830 171.2940 326.2196 15.13694484226196 Zhou Enlai 1 43156U 18008B 22055.58759848 .00004686 00000-0 26558-3 0 9997 2 43156 97.3737 117.5156 0014150 170.6206 327.7346 15.13378764226126 TianYi 6 1 43158U 18008D 22055.41491213 .00004136 00000-0 23993-3 0 9990 2 43158 97.3698 115.5356 0013291 170.9237 199.7405 15.12618759226017 S-Net D 1 43186U 18014G 22055.71638603 .00000484 00000-0 46531-4 0 9993 2 43186 97.6665 323.6039 0010183 323.5745 36.4784 14.97438214222046 S-Net B 1 43187U 18014H 22055.71641636 .00000473 00000-0 45595-4 0 9991 2 43187 97.6662 323.5606 0010173 323.4622 36.5905 14.97437087222048 S-Net A 1 43188U 18014J 22055.31570983 .00000508 00000-0 48567-4 0 9995 2 43188 97.6667 323.2244 0010188 325.1852 34.8702 14.97435910221980 S-Net C 1 43189U 18014K 22055.51674531 .00000489 00000-0 46944-4 0 9997 2 43189 97.6662 323.3548 0010196 324.0711 35.9824 14.97434442220564 FMN 1 1 43192U 18015A 22055.93112991 .00015394 00000-0 49469-3 0 9990 2 43192 97.5174 198.6758 0013201 70.6087 45.9312 15.32283286226186 Shaonian Xing 1 43199U 18015H 22055.52123786 .00010385 00000-0 35448-3 0 9993 2 43199 97.4948 194.3009 0015492 82.4655 341.9941 15.30403101226151 SurfSat 1 43614U 18070B 22055.52929947 .00019070 00000-0 37524-3 0 9996 2 43614 93.0222 51.1579 0016011 100.6281 259.6782 15.47064122193568 CP-7 DAVE 1 43615U 18070C 22055.47833577 .00017723 00000-0 35535-3 0 9997 2 43615 93.0222 51.0463 0016223 101.1712 259.1371 15.46519340193532 ELFIN-B 1 43616U 18070D 22055.47524212 .00030152 00000-0 48795-3 0 9994 2 43616 93.0159 51.7185 0015457 95.4621 264.8404 15.52587197193758 ELFIN-A 1 43617U 18070E 22055.58358648 .00031201 00000-0 48795-3 0 9991 2 43617 93.0223 52.8958 0014815 92.0940 268.2019 15.53543684193805 CubeBel-1 1 43666U 18083E 22055.85177375 .00006179 00000-0 28073-3 0 9998 2 43666 97.4334 85.9218 0014359 14.6135 108.7460 15.21035028184356 Changshagaoxin 1 43669U 18083H 22055.85489904 .00005405 00000-0 25627-3 0 9998 2 43669 97.4277 82.2425 0010606 15.1703 109.2207 15.19659139184192 Ten-Koh 1 43677U 18084G 22055.59385466 .00000678 00000-0 74839-4 0 9994 2 43677 97.9456 184.7778 0014631 284.8244 75.1353 14.90738922180860 PO-101 1 43678U 18084H 22055.64944224 .00000472 00000-0 52381-4 0 9994 2 43678 97.9504 187.7444 0008814 303.4251 56.6149 14.91930441181038 IRVINE 01 1 43693U 18088D 22055.40413948 .00018801 00000-0 63739-3 0 9996 2 43693 85.0329 26.9955 0015467 159.2324 200.9554 15.30307226182891 QO-100 1 43700U 18090A 22055.56025991 .00000140 00000-0 00000-0 0 9997 2 43700 0.0148 203.3000 0002433 167.4587 11.1308 1.00272575 12148 Reaktor Hello World 1 43743U 18096AA 22055.43448743 .00007758 00000-0 26004-3 0 9998 2 43743 97.3616 136.0011 0017592 101.8422 258.4793 15.31041653180656 MinXSS-2 1 43758U 18099A 22055.15035123 .00001920 00000-0 17324-3 0 9990 2 43758 97.6382 125.7967 0013701 287.2877 72.6845 14.96624673176154 AO-95 1 43770U 18099N 22055.15905995 .00000977 00000-0 92539-4 0 9990 2 43770 97.6352 124.4326 0013080 298.6237 61.3668 14.95807269176078 RANGE-B 1 43772U 18099Q 22055.79599516 .00001972 00000-0 17954-3 0 9993 2 43772 97.6444 126.4849 0012458 280.0992 79.8824 14.96255348176181 RANGE-A 1 43773U 18099R 22055.45861416 .00001332 00000-0 12500-3 0 9990 2 43773 97.6278 123.7672 0011934 282.6356 77.3531 14.95571502176103 MOVE-II 1 43780U 18099Y 22055.73526548 .00002628 00000-0 23479-3 0 9999 2 43780 97.6377 125.8808 0011556 290.6301 69.3682 14.96710755176197 SNUSat 2 1 43782U 18099AA 22055.42107314 .00001253 00000-0 11664-3 0 9999 2 43782 97.6355 125.1156 0011066 282.0446 77.9535 14.96013539176137 SnugLite 1 43784U 18099AC 22055.74023658 .00001884 00000-0 17205-3 0 9991 2 43784 97.6316 125.0902 0013297 288.3477 71.6298 14.96179272176207 ITASat 1 1 43786U 18099AE 22055.43433471 .00000699 00000-0 67233-4 0 9997 2 43786 97.6375 125.5518 0013709 289.5008 70.4732 14.96037618176154 EAGLET 1 1 43790U 18099AJ 22055.41363846 .00001345 00000-0 12385-3 0 9994 2 43790 97.6368 126.0369 0011719 293.8992 66.1002 14.96322166175886 ESEO 1 43792U 18099AL 22055.78140023 .00000342 00000-0 35565-4 0 9998 2 43792 97.6319 125.7571 0011924 288.9372 71.0557 14.95942877175987 CSIM 1 43793U 18099AM 22055.89257705 .00001550 00000-0 13824-3 0 9992 2 43793 97.6389 126.8048 0011132 282.5088 77.4888 14.97371555176036 Astrocast 0.1 1 43798U 18099AS 22055.71582809 .00001022 00000-0 94271-4 0 9994 2 43798 97.6371 126.6650 0011066 267.9281 92.0674 14.96756764176244 JO-97 1 43803U 18099AX 22055.41692000 .00001728 00000-0 15732-3 0 9990 2 43803 97.6340 125.2724 0013339 288.9963 70.9814 14.96391186176164 Suomi 100 1 43804U 18099AY 22055.83023257 .00000791 00000-0 74914-4 0 9996 2 43804 97.6332 125.6166 0013641 287.6820 72.2912 14.96333031176231 Al Farabi 2 1 43805U 18099AZ 22055.38401199 .00001706 00000-0 15420-3 0 9995 2 43805 97.6336 125.5577 0013904 287.7543 72.2177 14.96692220176181 CHOMPTT 1 43855U 18104G 22055.69205506 .00004285 00000-0 16691-3 0 9991 2 43855 85.0367 126.2147 0014194 297.9657 62.0149 15.25571026177521 ISAT 1 43879U 18111D 22055.47974864 .00002165 00000-0 19185-3 0 9997 2 43879 97.6729 323.1492 0012250 346.4342 13.6549 14.97225265172767 UWE-4 1 43880U 18111E 22055.69729582 .00002216 00000-0 19517-3 0 9994 2 43880 97.6768 323.9923 0011675 348.4752 11.6201 14.97436726170820 Sparrow 1 43881U 18111F 22055.72341761 .00001366 00000-0 12200-3 0 9995 2 43881 97.6765 324.2079 0012086 342.3332 17.7468 14.97521165170833 Lume 1 1 43908U 18111AJ 22055.50113865 .00005796 00000-0 21306-3 0 9991 2 43908 97.2072 306.9493 0021200 114.0160 246.3302 15.28060429176130 FO-98 1 43933U 19003B 22055.40386698 .00094585 00000-0 20324-2 0 9997 2 43933 97.1538 93.9732 0010316 196.6981 163.3930 15.44275033172695 FO-99 1 43937U 19003F 22055.55476082 .00006410 00000-0 23662-3 0 9993 2 43937 97.1473 93.4411 0021609 192.4067 167.6644 15.27869708172724 MYSat 1 1 44045U 18092F 22055.88627367 .00016633 00000-0 34580-3 0 9990 2 44045 51.6345 270.3520 0008049 52.0321 308.1392 15.45746001170418 AstroCast 0.2 1 44083U 19018F 22055.81256079 .00005675 00000-0 23255-3 0 9993 2 44083 97.3393 116.9298 0012797 159.8059 200.3688 15.24597867161317 AISTechSat 3 1 44103U 19018AB 22055.80735839 .00004673 00000-0 18633-3 0 9992 2 44103 97.3257 117.3583 0013034 167.2227 192.9344 15.25606417161460 AISat 1 1 44104U 19018AC 22055.81213588 .00005096 00000-0 15212-3 0 9996 2 44104 97.4022 138.6520 0054731 174.5138 185.6716 15.33588122162329 Prox-1 1 44339U 19036A 22055.54708509 .00002311 00000-0 48582-3 0 9991 2 44339 23.9993 185.7983 0011304 56.9820 303.1756 14.54255632141895 Oculus-ASR 1 44348U 19036K 22055.56673399 .00053648 00000-0 62660-3 0 9993 2 44348 28.5069 243.9160 0284256 135.8350 226.5311 15.24354205147230 Armadillo 1 44352U 19036P 22055.68001063 .00091024 -45726-5 82141-3 0 9990 2 44352 28.5261 194.1980 0219535 214.0542 144.5796 15.41620603147690 NO-104 1 44354U 19036R 22055.56476197 .00055995 00000-0 62959-3 0 9995 2 44354 28.5231 232.8997 0276780 150.9631 210.6669 15.26585991147348 NO-103 1 44355U 19036S 22055.49962131 .00166550 73364-6 88879-3 0 9994 2 44355 28.5214 126.8649 0138813 324.2134 34.9237 15.66236990148394 Move-IIb 1 44398U 19038N 22055.90348636 .00006530 00000-0 34353-3 0 9997 2 44398 97.6157 24.5661 0023782 153.6147 206.6302 15.15752517145972 SONATE 1 44400U 19038Q 22055.57378558 .00002598 00000-0 14816-3 0 9992 2 44400 97.6261 23.7761 0024706 158.2498 201.9790 15.13437626145856 BeeSat 9 1 44412U 19038AC 22055.43696748 .00004668 00000-0 25361-3 0 9991 2 44412 97.6231 24.1732 0021917 160.4436 199.7642 15.14805540145571 JAISAT-1 1 44419U 19038F 22055.85454438 .00005007 00000-0 26821-3 0 9992 2 44419 97.6233 25.3398 0020990 156.5116 203.7080 15.15289658145997 LightSail-2 1 44420U 19036AC 22055.53497433 .00026422 00000-0 46311-2 0 9998 2 44420 24.0024 144.7491 0015204 91.8140 268.4095 14.66298387140545 Taurus 1 1 44530U 19059C 22055.83194389 .00001314 00000-0 37671-3 0 9995 2 44530 98.5455 153.3437 0015054 102.4140 257.8736 14.46550768129564 Duchifat 3 1 44854U 19089C 22055.39040528 .00002285 00000-0 18562-3 0 9999 2 44854 36.9667 50.1505 0007945 13.4444 346.6537 15.00181185120945 OPS-SAT 1 44878U 19092F 22055.74711591 .00004759 00000-0 23671-3 0 9998 2 44878 97.4775 240.8404 0013627 18.2939 341.8783 15.18024280121082 TO-108 1 44881U 19093C 22055.45990921 .00000365 00000-0 53203-4 0 9991 2 44881 97.9016 136.2679 0014638 188.7444 171.3526 14.81575931118044 FloripaSat 1 1 44885U 19093G 22055.79351450 .00001171 00000-0 15164-3 0 9999 2 44885 97.9049 137.6127 0014207 194.3864 165.6941 14.82668878118151 RS-44 1 44909U 19096E 22055.45199538 .00000004 00000-0 -25472-4 0 9998 2 44909 82.5219 305.3695 0216555 223.7780 134.5977 12.79711984101051 Phoenix 1 45258U 98067RB 22055.54384293 .00050958 00000-0 43246-3 0 9995 2 45258 51.6341 139.2678 0003487 78.6757 281.4631 15.69123906114580 Quetzal 1 1 45598U 98067RL 22055.55846450 .01844357 33712-2 12456-2 0 9992 2 45598 51.6230 118.9139 0007946 14.9642 345.1608 16.16858779104183 BY70-2 1 45857U 20042B 22055.50844692 .00003772 00000-0 52654-3 0 9993 2 45857 97.9641 133.5471 0012245 121.2048 239.0371 14.78215777 88766 UPMSat 2 1 46276U 20061E 22055.49792512 .00002331 00000-0 12055-3 0 9992 2 46276 97.4044 128.9168 0001647 144.5033 215.6310 15.17220247 81747 AmicalSat 1 46287U 20061R 22055.44743004 .00002584 00000-0 15662-3 0 9998 2 46287 97.4594 127.9290 0001658 340.6610 19.4557 15.11432899 81392 SALSAT 1 46495U 20068K 22055.54173535 .00000807 00000-0 62978-4 0 9992 2 46495 97.7190 356.9388 0015296 303.6994 56.2772 15.03918456 77210 BY70-3 1 46839U 20079N 22055.60696476 .00012667 00000-0 34976-3 0 9990 2 46839 97.2121 129.5346 0007047 31.8103 103.1299 15.37174249 72881 SPOC 1 46921U 98067RR 22055.52384199 .00049267 00000-0 47373-3 0 9992 2 46921 51.6368 151.2494 0003189 337.3521 22.7333 15.66061143 74176 Bobcat-1 1 46922U 98067RS 22055.50526567 .00141305 00000-0 77954-3 0 9992 2 46922 51.6344 141.3847 0005851 350.9217 9.1677 15.78692848 74258 Neutron-1 1 46923U 98067RT 22055.55928542 .00049781 00000-0 48095-3 0 9996 2 46923 51.6373 151.4928 0003255 342.6301 17.4582 15.65937812 74202 CAPE 3 1 47309U 21002A 22055.54137399 .00004631 00000-0 20837-3 0 9990 2 47309 60.6846 68.5253 0022912 193.7447 166.3019 15.22538200 61242 AO-109 1 47311U 21002C 22055.44537766 .00004751 00000-0 20922-3 0 9992 2 47311 60.6856 66.9741 0020042 184.2738 175.8181 15.23280036 61236 MiTEE 1 1 47314U 21002F 22055.97559214 .00007791 00000-0 30792-3 0 9998 2 47314 60.6842 60.9354 0022012 172.6395 187.5021 15.26144665 61409 ExoCube 2 1 47319U 21002L 22055.74148995 .00004159 00000-0 18667-3 0 9990 2 47319 60.6855 66.6729 0020338 188.4225 171.6524 15.22892587 61235 UVSQ-SAT 1 47438U 21006AB 22055.66250898 .00003191 00000-0 17796-3 0 9990 2 47438 97.4539 117.0242 0011147 310.7462 49.2801 15.14238644 60209 YUSAT 1 1 47439U 21006AC 22055.85298150 .00003760 00000-0 20801-3 0 9998 2 47439 97.4544 117.2459 0010951 310.2394 49.7880 15.14414201 60239 SOMP 2b 1 47445U 21006AJ 22054.71604630 .00003678 00000-0 20587-3 0 9992 2 47445 97.4511 115.8493 0010908 318.8665 41.1744 15.14011329 60058 IDEASSat 1 47458U 21006AX 22055.74340832 .00002712 00000-0 15341-3 0 9991 2 47458 97.4601 117.2463 0009937 313.6700 46.3707 15.13869467 60204 RSP-01 1 47925U 98067SB 22055.77642298 .00053011 00000-0 54592-3 0 9994 2 47925 51.6382 158.9400 0002797 317.7497 42.3282 15.64305392 54068 TAUSAT-1 1 47926U 98067SC 22055.51338314 .00084216 00000-0 69640-3 0 9999 2 47926 51.6373 156.4033 0004047 321.3020 38.7687 15.69544182 54062 Tsuru 1 47927U 98067SD 22055.69027678 .00048658 00000-0 53638-3 0 9997 2 47927 51.6376 160.6088 0002477 310.9438 49.1342 15.62605675 54034 STARS-EC 1 47928U 98067SE 22055.73292714 .00112754 00000-0 85069-3 0 9990 2 47928 51.6363 155.6139 0007541 342.3156 17.7578 15.71592256 54082 Maya-2 1 47929U 98067SF 22055.75042577 .00047320 00000-0 52242-3 0 9996 2 47929 51.6377 160.2589 0002363 309.1254 50.9530 15.62579166 54000 OPUSAT-II 1 47930U 98067SG 22055.73674940 .00119059 00000-0 85301-3 0 9992 2 47930 51.6348 154.1448 0004667 333.5539 26.5221 15.72810138 54129 GuaraniSat-1 1 47931U 98067SH 22055.74349120 .00048748 00000-0 53579-3 0 9991 2 47931 51.6387 160.2249 0002445 308.1671 51.9103 15.62680952 54047 CubeSX-Sirius-HSE 1 47951U 21022V 22055.61778762 .00002833 00000-0 19523-3 0 9990 2 47951 97.5406 317.5187 0021798 168.0014 280.3389 15.06454755 51009 CubeSX-HSE 1 47952U 21022W 22055.60899047 .00003168 00000-0 21752-3 0 9999 2 47952 97.5409 317.5238 0021929 167.4970 280.9907 15.06500273 51009 KSU-Cubesat 1 47954U 21022Y 22055.37178443 .00002006 00000-0 13878-3 0 9995 2 47954 97.5420 317.3555 0021411 166.8538 193.3252 15.06640937 50699 GRBAlpha 1 47959U 21022AD 22055.74085920 .00003300 00000-0 22630-3 0 9992 2 47959 97.5414 317.6800 0021771 167.6629 278.3510 15.06515675 49848 Orbicraft-Zorkiy 1 47960U 21022AE 22055.85737421 .00002701 00000-0 18558-3 0 9994 2 47960 97.5444 317.8852 0021299 165.9726 281.2212 15.06609007 50551 STECCO 1 47962U 21022AG 22055.86424553 .00004641 00000-0 30447-3 0 9992 2 47962 97.5400 318.3231 0016766 160.2731 264.3353 15.08034370 49899 DO-111 1 47963U 21022AH 22055.47751024 .00008810 00000-0 54649-3 0 9998 2 47963 97.5423 318.4138 0018723 156.7586 203.4494 15.09811908 49885 MO-110 1 47964U 21022AJ 22055.72357036 .00003755 00000-0 24478-3 0 9992 2 47964 97.5415 318.3614 0019689 157.5982 202.6111 15.08346296 49885 FEES 1 48082U 21022AL 22055.47152488 .00005760 00000-0 37454-3 0 9996 2 48082 97.5421 317.9775 0015841 154.9298 205.2702 15.08277935 49545 RamSat 1 48850U 98067SL 22055.56355565 .00029655 00000-0 40494-3 0 9990 2 48850 51.6394 167.9841 0004709 353.0763 7.0164 15.57205977 39679 MO-112 1 48868U 98067SP 22055.75212479 .00111677 00000-0 92697-3 0 9994 2 48868 51.6354 160.9718 0006106 347.4703 12.6141 15.69319071 38562 TUBIN 1 48900U 21059X 22055.71277874 .00002665 00000-0 15487-3 0 9992 2 48900 97.5352 186.1343 0011565 128.3622 341.6993 15.12912288 36869 IT-SPINS 1 49017U 21013G 22055.44295056 .00005917 00000-0 25178-3 0 9995 2 49017 51.6033 219.5823 0008402 26.1680 333.9720 15.24350793 36531 LEDSAT 1 49069U 21073D 22055.46099356 .00001966 00000-0 13197-3 0 9993 2 49069 97.5363 130.6148 0026687 324.1391 35.8044 15.07715978 28800 CUTE 1 49263U 21088D 22055.51912474 .00002189 00000-0 17013-3 0 9995 2 49263 97.6049 125.7121 0022701 90.7181 269.6645 15.02132244 22464 Binar-1 1 49272U 98067SR 22055.76750548 .00031903 00000-0 45888-3 0 9992 2 49272 51.6389 170.0783 0004756 272.7253 87.3194 15.55760267 22059 Maya-3 1 49273U 98067SS 22055.58987498 .00043492 00000-0 58935-3 0 9992 2 49273 51.6387 170.3936 0004686 274.4973 85.5483 15.57222531 22039 Maya-4 1 49274U 98067ST 22055.78790664 .00041818 00000-0 56885-3 0 9994 2 49274 51.6387 169.4663 0004599 274.6449 85.4018 15.57137513 22060 CUAVA-1 1 49275U 98067SU 22055.80828880 .00041163 00000-0 56836-3 0 9999 2 49275 51.6409 169.4152 0004556 277.9591 167.7699 15.56743458 22010 TeikyoSat 4 1 49396U 21102B 22055.59201932 .00001017 00000-0 85383-4 0 9992 2 49396 97.5566 117.0833 0017536 274.8013 85.1208 15.00414560 16121 Z-Sat 1 49399U 21102E 22055.53613967 .00000286 00000-0 26228-4 0 9994 2 49399 97.5500 117.3645 0020879 254.8984 104.9931 15.02110754 16139 KOSEN 1 1 49402U 21102H 22055.93849318 .00000429 00000-0 36214-4 0 9999 2 49402 97.5449 117.8091 0021049 241.7628 118.1473 15.03042339 16206 HO-113 1 50466U 21131B 22055.48767234 .00000051 00000-0 31408-4 0 9990 2 50466 98.5904 132.7617 0005799 121.0322 239.1438 14.38444327 8677 Tevel 1 50999U 22002R 22055.48304934 .00004106 00000-0 23479-3 0 9996 2 50999 97.4946 124.4522 0013098 90.2347 270.0385 15.13160975 6334 Grizu-263a 1 51025U 22002AT 22055.40676360 .00007878 00000-0 44020-3 0 9998 2 51025 97.5117 124.4987 0014957 95.2469 265.0470 15.13679564 6323 IRIS-A 1 51044U 22002BN 22055.43551291 .00002069 00000-0 12276-3 0 9992 2 51044 97.4967 124.3728 0011047 94.4943 265.7550 15.12402493 6323 DELFI-PQ 1 51074U 22002CU 22055.43810067 .00005703 00000-0 30903-3 0 9999 2 51074 97.5201 124.6560 0015734 123.3045 236.9696 15.14890956 6336 Hades 1 51080U 22002DA 22055.44013623 .00003921 00000-0 21465-3 0 9993 2 51080 97.5216 124.6600 0015406 122.8863 237.3854 15.14726112 6335 EASAT-2 1 51081U 22002DB 22055.44060476 .00004101 00000-0 22434-3 0 9990 2 51081 97.5206 124.6550 0015746 122.8870 237.3879 15.14717335 6338 GASPACS 1 51439U 98067TB 22055.55358110 .00069593 00000-0 10496-2 0 9998 2 51439 51.6394 173.8907 0003950 170.5265 189.5801 15.54115651 4549 /EX
